ZS1BR-13 Weather Reports


time (UTC)temp
C
wind
direction
speed
KPH
gust
KPH
rain 1hr
cm
rain 24hr
cm
rain mn
cm
humidity
%
barometer
mb
20260509201541 17 0 0.0 0.0 0.00 0.00 0.00 60 1002.7
20260509200535 17 0 0.0 0.0 0.00 0.00 0.00 61 1002.8
20260509195527 17 0 0.0 0.0 0.00 0.00 0.00 62 1003.1
20260509194520 17 0 0.0 0.0 0.00 0.00 0.00 62 1003.2
20260509193614 17 0 0.0 0.0 0.00 0.00 0.00 61 1003.3
20260509192607 17 0 0.0 0.0 0.00 0.00 0.00 61 1003.6
20260509191600 17 0 0.0 0.0 0.00 0.00 0.00 60 1004.0
20260509190553 17 0 0.0 0.0 0.00 0.00 0.00 60 1004.1
20260509185546 17 0 0.0 0.0 0.00 0.00 0.00 60 1004.2
20260509184538 17 0 0.0 0.0 0.00 0.00 0.00 59 1004.3
20260509183530 17 0 0.0 0.0 0.00 0.00 0.00 59 1004.6
20260509182523 17 0 0.0 0.0 0.00 0.00 0.00 58 1004.7
20260509181616 17 0 0.0 0.0 0.00 0.00 0.00 58 1004.9
20260509180609 17 0 0.0 0.0 0.00 0.00 0.00 58 1005.1
20260509175602 17 0 0.0 0.0 0.00 0.00 0.00 58 1005.2
20260509174555 18 0 0.0 0.0 0.00 0.00 0.00 58 1005.3
20260509173548 18 0 0.0 0.0 0.00 0.00 0.00 57 1005.4
20260509172541 18 0 0.0 0.0 0.00 0.00 0.00 57 1005.3
20260509171535 18 0 0.0 0.0 0.00 0.00 0.00 57 1005.4
20260509170527 18 0 0.0 0.0 0.00 0.00 0.00 56 1005.6
20260509165520 18 0 0.0 0.0 0.00 0.00 0.00 55 1005.6
20260509164614 18 0 0.0 0.0 0.00 0.00 0.00 54 1005.6
20260509163607 18 0 0.0 0.0 0.00 0.00 0.00 53 1005.7
20260509162559 18 0 0.0 0.0 0.00 0.00 0.00 52 1005.8
20260509161551 18 0 0.0 0.0 0.00 0.00 0.00 52 1005.9
20260509160545 18 0 0.0 0.0 0.00 0.00 0.00 52 1006.0
20260509155538 18 0 0.0 0.0 0.00 0.00 0.00 52 1006.2
20260509154531 18 0 0.0 0.0 0.00 0.00 0.00 53 1006.2
20260509153524 18 0 0.0 0.0 0.00 0.00 0.00 51 1006.2
20260509152617 19 0 0.0 0.0 0.00 0.00 0.00 50 1006.0
20260509151611 19 0 0.0 0.0 0.00 0.00 0.00 50 1006.0
20260509150604 19 0 0.0 0.0 0.00 0.00 0.00 49 1006.1
20260509145557 19 0 0.0 0.0 0.00 0.00 0.00 48 1006.1
20260509144549 19 0 0.0 0.0 0.00 0.00 0.00 48 1006.2
20260509143542 20 0 0.0 0.0 0.00 0.00 0.00 47 1006.3
20260509142535 20 0 0.0 0.0 0.00 0.00 0.00 45 1006.0
20260509141528 20 0 0.0 0.0 0.00 0.00 0.00 46 1006.0
20260509140521 20 0 0.0 0.0 0.00 0.00 0.00 46 1006.1
20260509135615 20 0 0.0 0.0 0.00 0.00 0.00 47 1006.2
20260509134608 20 0 0.0 0.0 0.00 0.00 0.00 48 1006.3
20260509133600 20 0 0.0 0.0 0.00 0.00 0.00 48 1006.4
20260509132553 20 0 0.0 0.0 0.00 0.00 0.00 48 1006.5
20260509131546 20 0 0.0 0.0 0.00 0.00 0.00 48 1006.5
20260509130538 20 0 0.0 0.0 0.00 0.00 0.00 47 1006.6
20260509125530 20 0 0.0 0.0 0.00 0.00 0.00 47 1006.7
20260509124523 20 0 0.0 0.0 0.00 0.00 0.00 47 1007.0
20260509123616 20 0 0.0 0.0 0.00 0.00 0.00 46 1007.0
20260509122609 20 0 0.0 0.0 0.00 0.00 0.00 46 1007.4
20260509121602 20 0 0.0 0.0 0.00 0.00 0.00 46 1007.8
20260509120555 20 0 0.0 0.0 0.00 0.00 0.00 47 1008.0
20260509115548 20 0 0.0 0.0 0.00 0.00 0.00 47 1008.1
20260509114542 19 0 0.0 0.0 0.00 0.00 0.00 48 1008.1
20260509113535 19 0 0.0 0.0 0.00 0.00 0.00 50 1008.3
20260509112526 19 0 0.0 0.0 0.00 0.00 0.00 51 1008.6
20260509111520 18 0 0.0 0.0 0.00 0.00 0.00 52 1008.7
20260509110612 18 0 0.0 0.0 0.00 0.00 0.00 53 1008.9
20260509105606 18 0 0.0 0.0 0.00 0.00 0.00 57 1009.1
20260509104558 18 0 0.0 0.0 0.00 0.00 0.00 58 1009.1
20260509103551 18 0 0.0 0.0 0.00 0.00 0.00 59 1009.0
20260509102544 17 0 0.0 0.0 0.00 0.00 0.00 62 1009.4
20260509101537 17 0 0.0 0.0 0.00 0.00 0.00 64 1009.4
20260509100529 17 0 0.0 0.0 0.00 0.00 0.00 66 1009.6
20260509095522 17 0 0.0 0.0 0.00 0.00 0.00 67 1009.7
20260509094616 17 0 0.0 0.0 0.00 0.00 0.00 68 1009.7
20260509093609 16 0 0.0 0.0 0.00 0.00 0.00 70 1009.9
20260509092601 16 0 0.0 0.0 0.00 0.00 0.00 72 1010.2
20260509091555 16 0 0.0 0.0 0.00 0.00 0.00 72 1010.4
20260509090547 16 0 0.0 0.0 0.00 0.00 0.00 72 1010.6
20260509085539 16 0 0.0 0.0 0.00 0.00 0.00 72 1010.5
20260509084530 16 0 0.0 0.0 0.00 0.00 0.00 72 1010.7
20260509083523 15 0 0.0 0.0 0.00 0.00 0.00 73 1010.9
20260509082616 15 0 0.0 0.0 0.00 0.00 0.00 73 1011.0
20260509081609 15 0 0.0 0.0 0.00 0.00 0.00 73 1011.1
20260509080602 15 0 0.0 0.0 0.00 0.00 0.00 72 1011.2
20260509075555 15 0 0.0 0.0 0.00 0.00 0.00 72 1011.3
20260509074548 15 0 0.0 0.0 0.00 0.00 0.00 71 1011.4
20260509073541 15 0 0.0 0.0 0.00 0.00 0.00 70 1011.3
20260509072534 15 0 0.0 0.0 0.00 0.00 0.00 70 1011.4
20260509071526 15 0 0.0 0.0 0.00 0.00 0.00 69 1011.5
20260509070519 15 0 0.0 0.0 0.00 0.00 0.00 68 1011.4
20260509065612 15 0 0.0 0.0 0.00 0.00 0.00 67 1011.5
20260509064606 15 0 0.0 0.0 0.00 0.00 0.00 67 1011.5
20260509063558 15 0 0.0 0.0 0.00 0.00 0.00 66 1011.5
20260509062552 14 0 0.0 0.0 0.00 0.00 0.00 66 1011.4
20260509061545 14 0 0.0 0.0 0.00 0.00 0.00 66 1011.4
20260509060537 14 0 0.0 0.0 0.00 0.00 0.00 66 1011.5
20260509055530 14 0 0.0 0.0 0.00 0.00 0.00 66 1011.4
20260509054523 14 0 0.0 0.0 0.00 0.00 0.00 65 1011.5
20260509053616 14 0 0.0 0.0 0.00 0.00 0.00 65 1011.7
20260509052609 14 0 0.0 0.0 0.00 0.00 0.00 65 1011.6
20260509051603 14 0 0.0 0.0 0.00 0.00 0.00 65 1011.7
20260509050556 14 0 0.0 0.0 0.00 0.00 0.00 65 1011.8
20260509045549 14 0 0.0 0.0 0.00 0.00 0.00 65 1011.8
20260509044542 14 0 0.0 0.0 0.00 0.00 0.00 65 1011.8
20260509043535 14 0 0.0 0.0 0.00 0.00 0.00 66 1011.9
20260509042528 15 0 0.0 0.0 0.00 0.00 0.00 65 1011.9
20260509041521 15 0 0.0 0.0 0.00 0.00 0.00 65 1012.0
20260509040614 15 0 0.0 0.0 0.00 0.00 0.00 65 1012.0
20260509035608 15 0 0.0 0.0 0.00 0.00 0.00 65 1012.0
20260509034600 15 0 0.0 0.0 0.00 0.00 0.00 65 1012.1
20260509033553 15 0 0.0 0.0 0.00 0.00 0.00 65 1012.2
20260509032547 15 0 0.0 0.0 0.00 0.00 0.00 66 1012.2
20260509031538 15 0 0.0 0.0 0.00 0.00 0.00 66 1012.3
20260509030531 15 0 0.0 0.0 0.00 0.00 0.00 65 1012.4
20260509025523 15 0 0.0 0.0 0.00 0.00 0.00 65 1012.4
20260509024617 15 0 0.0 0.0 0.00 0.00 0.00 65 1012.6
20260509023610 15 0 0.0 0.0 0.00 0.00 0.00 65 1012.7
20260509022603 15 0 0.0 0.0 0.00 0.00 0.00 65 1012.9
20260509021556 15 0 0.0 0.0 0.00 0.00 0.00 65 1012.9
20260509020549 15 0 0.0 0.0 0.00 0.00 0.00 65 1013.0
20260509015541 15 0 0.0 0.0 0.00 0.00 0.00 65 1013.1
20260509014535 15 0 0.0 0.0 0.00 0.00 0.00 65 1013.3
20260509013528 15 0 0.0 0.0 0.00 0.00 0.00 65 1013.4
20260509012521 15 0 0.0 0.0 0.00 0.00 0.00 65 1013.5
20260509011614 15 0 0.0 0.0 0.00 0.00 0.00 65 1013.6
20260509010607 15 0 0.0 0.0 0.00 0.00 0.00 65 1013.8
20260509005600 16 0 0.0 0.0 0.00 0.00 0.00 64 1014.0
20260509004553 16 0 0.0 0.0 0.00 0.00 0.00 64 1014.0
20260509003546 16 0 0.0 0.0 0.00 0.00 0.00 65 1014.1
20260509002538 16 0 0.0 0.0 0.00 0.00 0.00 64 1014.2
20260509001531 16 0 0.0 0.0 0.00 0.00 0.00 64 1014.3
20260509000524 16 0 0.0 0.0 0.00 0.00 0.00 64 1014.4
20260508235617 16 0 0.0 0.0 0.00 0.00 0.00 64 1014.5
20260508234611 16 0 0.0 0.0 0.00 0.00 0.00 64 1014.5
20260508233604 16 0 0.0 0.0 0.00 0.00 0.00 64 1014.5
20260508232557 16 0 0.0 0.0 0.00 0.00 0.00 64 1014.5
20260508231550 16 0 0.0 0.0 0.00 0.00 0.00 64 1014.6
20260508230544 16 0 0.0 0.0 0.00 0.00 0.00 65 1014.6
20260508225534 16 0 0.0 0.0 0.00 0.00 0.00 65 1014.6
20260508224527 17 0 0.0 0.0 0.00 0.00 0.00 65 1014.8
20260508223520 17 0 0.0 0.0 0.00 0.00 0.00 66 1014.8
20260508222613 17 0 0.0 0.0 0.00 0.00 0.00 66 1015.0
20260508221606 17 0 0.0 0.0 0.00 0.00 0.00 66 1015.1
20260508220559 17 0 0.0 0.0 0.00 0.00 0.00 66 1015.2
20260508215552 17 0 0.0 0.0 0.00 0.00 0.00 66 1015.3
20260508214545 17 0 0.0 0.0 0.00 0.00 0.00 66 1015.4
20260508213538 17 0 0.0 0.0 0.00 0.00 0.00 66 1015.5
20260508212530 17 0 0.0 0.0 0.00 0.00 0.00 66 1015.6
20260508211524 17 0 0.0 0.0 0.00 0.00 0.00 66 1015.8
20260508210617 17 0 0.0 0.0 0.00 0.00 0.00 66 1015.8
20260508205610 17 0 0.0 0.0 0.00 0.00 0.00 66 1015.9
20260508204602 17 0 0.0 0.0 0.00 0.00 0.00 66 1015.9
20260508203555 17 0 0.0 0.0 0.00 0.00 0.00 66 1016.0
20260508202549 17 0 0.0 0.0 0.00 0.00 0.00 66 1016.1